Location: Newark
(34.0131°N, 4.3314°W)
Time: 08:06:58
(UTC+00:00)

Explorer 7 - Pass Details

Date: 15 October 2019
Orbit: 485 x 680 km, 50.3° (Epoch: 21 November)

Event Time Altitude Azimuth Distance (km) Brightness Sun altitude
Rises 11:11:54 0° 183° (S) 2,549 10.9 45.8°
Reaches altitude 10° 11:15:15 10° 151° (SSE) 1,658 10.3 46.0°
Maximum altitude 11:16:44 12° 127° (SE) 1,535 9.9 46.1°
Drops below altitude 10° 11:18:12 10° 103° (ESE) 1,658 9.7 46.2°
Sets 11:21:32 0° 72° (ENE) 2,550 10.2 46.4°
